Content
SEND FEEDBACK

Daily
Averages
Monthly
Summary
Romania

BACAU, ROMANIA


Home > Europe > Romania
Elevation: 623 feet     Latitude: 46 35N     Longitude: 026 59E

WEATHER
 
SELECT A DAY
Number of Records: 123,246;   Date Range: 1/10/97 - 10/30/14
 
SHARE

PRINT THIS DATA

[ ← Previous Day ]
WEATHER ALMANAC - JANUARY 31, 2013
[ Next Day → ]
[ °C ]   °F
Weather ElementAverageHighLow
Temperature30.7 °F42.8 °F (4:30 pm)22 °F (1:00 am)
Dewpoint29.1 °F39.2 °F (2:00 pm)21 °F (1:00 am)
Humidity93.2 %100 % (12:00 am)72 % (5:00 pm)
Barometer29.79 in29.91 in (1:00 am)29.68 in (7:30 am)
Wind Speed6.3 mph21.9 mph (12:00 am)
Weather ElementAverage
Visibility3 mi
Wind DirectionS (179.5 °)

Weather ElementTotal
Precipitation---
Heating Degree Days32.6 (Base 65)
Averaged from 61 records on January 31, 2013
WEATHER CONDITIONS BREAKOUT
WIND DIRECTION BREAKOUT
WEATHER BY HOUR - JANUARY 31, 2013
[ °C ]   °F
Local TimeTemperatureDewpointHumidityBarometerVisibilityWind DirectionWind SpeedGust SpeedPrecipitationEventsConditions
12:00 AM23.0 °F23.0 °F100 %29.86 in0.5 miSouth (170°)21.9 mphFog-SnowLight Snow Grains
1:00 AM22.0 °F21.0 °F94 %29.91 in2.0 miSSE (150°)8.9 mphMist
1:00 AM23.0 °F23.0 °F100 %29.83 in0.5 miSSE (160°)21.9 mphFog-SnowLight Snow Grains
2:00 AM22.0 °F21.0 °F95 %29.86 in2.0 miSSE (160°)8.9 mphMist
2:00 AM23.0 °F23.0 °F100 %29.80 inSSE (160°)19.6 mphSnowLight Snow
3:00 AM22.0 °F22.0 °F97 %29.85 inSSE (160°)8.9 mph
3:00 AM24.8 °F23.0 °F93 %29.77 in0.4 miSouth (170°)21.9 mphSnowLight Snow
4:00 AM24.8 °F23.0 °F93 %29.74 in0.6 miSouth (170°)18.4 mphSnowLight Snow Grains
4:00 AM22.0 °F21.0 °F96 %29.81 inSSE (160°)6.7 mph
5:00 AM23.0 °F22.0 °F96 %29.79 inSSE (160°)6.7 mph
5:00 AM24.8 °F23.0 °F93 %29.74 in0.9 miSSE (160°)16.1 mphMist
5:30 AM24.8 °F24.8 °F100 %29.74 in0.9 miSouth (170°)13.8 mphMostly Cloudy
6:00 AM23.0 °F23.0 °F99 %29.78 inSSE (160°)4.5 mph
6:00 AM24.8 °F24.8 °F100 %29.74 in1.2 miSouth (170°)13.8 mphMostly Cloudy
6:30 AM26.6 °F24.8 °F93 %29.71 in1.2 miSSE (160°)13.8 mphRainRain
7:00 AM26.6 °F24.8 °F93 %29.71 in1.2 miSSE (160°)13.8 mphMostly Cloudy
7:00 AM25.0 °F25.0 °F98 %29.76 in2.0 miSSE (160°)4.5 mphMist
7:30 AM26.6 °F24.8 °F93 %29.68 in1.2 miSouth (170°)13.8 mphOvercast
8:00 AM25.0 °F24.0 °F96 %29.74 in2.0 miSSE (150°)4.5 mphMist
8:00 AM26.6 °F26.6 °F100 %29.68 in1.2 miSSE (160°)13.8 mphOvercast
8:30 AM28.4 °F28.4 °F100 %29.71 in1.1 miSouth (190°)6.9 mphRainRain
9:00 AM26.0 °F26.0 °F100 %29.77 in2.0 miSSE (150°)2.2 mphRainHeavy Drizzle
9:00 AM28.4 °F28.4 °F100 %29.74 in0.9 miVariable2.3 mphRainLight Freezing Rain
9:30 AM30.2 °F28.4 °F93 %29.74 in0.6 miCalmFog-RainLight Freezing Rain
10:00 AM29.0 °F29.0 °F98 %29.77 in2.0 miSE (140°)2.2 mphLight Freezing Rain
10:00 AM30.2 °F30.2 °F100 %29.74 in0.8 miCalmRainLight Freezing Rain
10:30 AM30.2 °F30.2 °F100 %29.74 in1.0 miCalmRainRain
11:00 AM30.0 °F29.0 °F97 %29.77 in2.0 miSouth (170°)2.2 mphLight Freezing Rain
11:00 AM32.0 °F30.2 °F93 %29.74 in0.9 miNW (310°)4.6 mphMostly Cloudy
11:30 AM33.8 °F32.0 °F93 %29.77 in1.1 miNorth (360°)4.6 mphRainLight Rain
12:00 PM32.0 °F31.0 °F97 %29.81 in2.0 miNNW (330°)2.2 mphLight Freezing Rain
12:30 PM33.8 °F32.0 °F93 %29.77 in0.7 miCalmRainLight Rain
1:00 PM33.0 °F33.0 °F98 %29.81 in2.0 miCalm (220°)RainLight Freezing Drizzle
1:00 PM33.8 °F32.0 °F93 %29.77 in0.8 miCalmMostly Cloudy
1:30 PM37.4 °F35.6 °F93 %29.77 in1.6 miNorth (350°)6.9 mphMostly Cloudy
2:00 PM37.0 °F37.0 °F100 %29.80 in2.0 miNorth (350°)4.5 mphMist
2:00 PM41.0 °F39.2 °F93 %29.77 in6.2 miNorth (360°)6.9 mphScattered Clouds
2:30 PM41.0 °F39.2 °F93 %29.77 in6.2 miNorth (10°)4.6 mphScattered Clouds
3:00 PM39.2 °F37.4 °F93 %29.80 in3.7 miNorth (10°)4.6 mphScattered Clouds
3:30 PM41.0 °F37.4 °F87 %29.80 in4.3 miNorth (350°)4.6 mphScattered Clouds
4:00 PM38.0 °F35.0 °F87 %29.82 in6.0 miNorth (350°)2.2 mphMostly Cloudy
4:00 PM39.2 °F35.6 °F87 %29.80 in6.2 miNNW (340°)9.2 mphScattered Clouds
4:30 PM42.8 °F35.6 °F76 %29.80 in6.2 miNNW (340°)6.9 mphPartly Cloudy
5:00 PM40.0 °F34.0 °F72 %29.82 in6.0 miNW (310°)2.2 mphScattered Clouds
5:00 PM39.2 °F35.6 °F87 %29.80 in4.3 miSE (130°)4.6 mphPartly Cloudy
5:30 PM39.2 °F33.8 °F81 %29.80 in4.3 miENE (60°)4.6 mphPartly Cloudy
6:00 PM37.4 °F33.8 °F87 %29.80 in4.3 miWest (280°)6.9 mphScattered Clouds
6:00 PM35.0 °F32.0 °F86 %29.85 in6.0 miCalm (200°)Partly Cloudy
6:30 PM41.0 °F33.8 °F76 %29.83 in6.2 miNorth (350°)4.6 mphScattered Clouds
7:00 PM34.0 °F31.0 °F82 %29.86 in6.0 miWNW (300°)2.2 mph
7:00 PM37.4 °F32.0 °F81 %29.83 in6.2 miWNW (290°)4.6 mphScattered Clouds
7:30 PM37.4 °F32.0 °F81 %29.83 in6.2 miVariable2.3 mphPartly Cloudy
8:00 PM29.0 °F29.0 °F98 %29.87 in6.0 miCalm (250°)
8:00 PM35.6 °F32.0 °F87 %29.83 inSSE (150°)4.6 mphClear
8:30 PM32.0 °F30.2 °F93 %29.83 in3.1 miCalmMist
9:00 PM26.0 °F26.0 °F100 %29.87 in6.0 miSW (220°)2.2 mph
9:00 PM32.0 °F32.0 °F100 %29.83 in3.1 miCalmMist
10:00 PM24.0 °F24.0 °F100 %29.88 in6.0 miWest (280°)2.2 mph
10:00 PM32.0 °F30.2 °F93 %29.83 in3.7 miSE (140°)2.3 mph
11:00 PM23.0 °F23.0 °F98 %29.89 in6.0 miCalm (270°)
11:00 PM30.2 °F28.4 °F93 %29.83 in1.9 miSSE (150°)4.6 mphMist
Hourly data recorded from LRBC, located miles away from Bacau, Romania







STORIES FROM OUR PARTNERS